Location: Newport
(44.6370°N, 124.0520°W)
Time: 11:53:34
(UTC-07:00)

Tiangong 2 - Pass Details

Date: 14 October 2017
Orbit: 388 x 391 km, 42.8° (Epoch: 22 October)

Event Time Altitude Azimuth Distance (km) Brightness Sun altitude
Exits shadow 06:35:30 17° 263° (W) 1,095 2.7 -10.6°
Maximum altitude 06:37:50 59° 186° (S) 454 1.4 -10.2°
Drops below altitude 10° 06:41:00 10° 106° (ESE) 1,421 5.4 -9.6°
Sets 06:43:05 0° 102° (ESE) 2,276 7.1 -9.2°
